Other Public Products
Issued by NWS Grand Forks, ND

Home | Current Version | Previous Version | Text Only | Print | Product List | Glossary Off
Versions: 1 2 3 4 5 6 7 8 9 10 11 12 13 14 15 16 17 18 19 20 21 22 23 24 25 26 27 28 29 30 31 32 33 34 35 36 37 38 39 40 41 42 43 44 45 46 47 48 49 50

132
FPUS83 KFGF 110410
OPUFGF
PRAIRIE TO PINES WEATHER ROUNDUP
NATIONAL WEATHER SERVICE EASTERN NORTH DAKOTA/GRAND FORKS ND
1000 PM CST WED FEB 10 2016

 **SATELLITE DATA USED TO AUGMENT SKY COVER AT AUTOMATED STATIONS**
 *****  WEATHER ACROSS EASTERN NORTH DAKOTA  *****

CITY           SKY/WX    TMP DP  RH WIND       PRES   REMARKS
GRAND FORKS    PTCLDY     5  -4  66 N5        30.31S WCI  -4
GRAND FORKS AF CLOUDY     4  -3  74 N3        30.30R
GRAND CITY NWS NOT AVBL
BUXTON         NOT AVBL
DEVILS LAKE    CLOUDY     5   0  79 CALM      30.25S
FARGO          CLOUDY     9   0  67 N6        30.29R WCI  -1
WAHPETON ARPT  CLOUDY    10   3  72 N5        30.27S WCI   2
$$

 *****  WEATHER ACROSS CENTRAL AND WESTERN NORTH DAKOTA  *****

CITY           SKY/WX    TMP DP  RH WIND       PRES   REMARKS
JAMESTOWN      CLOUDY     8   1  73 E3        30.24R
BISMARCK       CLOUDY    18  10  71 E7        30.22R WCI   9
MINOT          CLOUDY    13   5  70 CALM      30.21R
MINOT AFB      CLOUDY    11   8  89 E2        30.20F
GARRISON         N/A     13   8  81 SE3       30.20R
WILLISTON      CLOUDY    27  23  85 E5        30.14F WCI  22
DICKINSON      CLOUDY    24  19  81 E6        30.11S WCI  17
HETTINGER      CLOUDY    30  24  78 NW3       30.13S
$$

 *****  OTHER OBSERVATIONS NORTHEAST NORTH DAKOTA  *****

CITY           SKY/WX    TMP DP  RH WIND       PRES   REMARKS
WALHALLA         N/A     -2  -2 100 CALM      30.30S
LANGDON        FAIR      -8 -13  77 CALM      30.24R
CAVALIER       FAIR       0  -2  92 CALM      30.31S
GRAFTON        FAIR       3   0  85 CALM      30.33R
CANDO          NOT AVBL
FORT TOTTEN      N/A      3  -1  82 CALM      29.95S
ROLLA          CLOUDY     0  -2  92 SW5       30.21F WCI -10
RUGBY          FAIR       7   5  92 CALM      30.23S
 ***** THE ABOVE OBSERVATIONS ARE NON NWS ARE NOT QUALITY
        CONTROLLED AND MAY MIS-REPORT RAIN FOR SNOW...
$$

 *****  OTHER OBSERVATIONS SOUTHEAST NORTH DAKOTA *****

CITY           SKY/WX    TMP DP  RH WIND       PRES   REMARKS
COOPERSTOWN    NOT AVBL
VALLEY CITY    CLOUDY     5   1  85 CALM      30.27R
OAKES          CLOUDY     9   3  78 NE9       30.25S WCI  -5
GWINNER        CLOUDY    10   5  79 N6        30.25F WCI   1
SHEYENNE NWR     N/A      6   0  76 N2        29.95S
BUFFALO        NOT AVBL
WYNDMERE       NOT AVBL
 ***** THE ABOVE OBSERVATIONS ARE NON NWS ARE NOT QUALITY
       CONTROLLED AND MAY MIS-REPORT RAIN FOR SNOW...
$$

  *****  WEATHER ACROSS NORTHERN MINNESOTA  *****

CITY           SKY/WX    TMP DP  RH WIND       PRES   REMARKS
FLAG ISLAND    CLOUDY    -8 -15  71 CALM      30.25F
WARROAD        CLOUDY   -13 -18  77 SW5       30.26S WCI -25
ROSEAU         CLOUDY    -9 -17  70 SW5       30.28R WCI -21
HALLOCK        CLOUDY    -2  -8  78 CALM      30.30F
THF RVR FALLS  CLOUDY     1 -17  42 CALM      30.28S
HALSTAD        NOT AVBL
FOSSTON        CLOUDY    -8 -13  77 CALM      30.25F
BAUDETTE       CLOUDY   -17 -23  73 CALM      30.23S HAZE
WASKISH        CLOUDY   -13 -17  84 W3        30.24S
CROOKSTON      CLOUDY     3  -2  78 CALM      30.31S
$$
  *****  WEATHER ACROSS CENTRAL AND WEST MINNESOTA  *****

CITY           SKY/WX    TMP DP  RH WIND       PRES   REMARKS
BEMIDJI        CLOUDY    -6 -10  81 CALM      30.22F
PARK RAPIDS    CLEAR      4  -7  60 N8        30.21R WCI  -9
WADENA         CLOUDY     7  -2  66 CALM      30.22R
DETROIT LAKES  CLOUDY     9   3  78 CALM      30.23S
MOORHEAD       CLOUDY     9   1  72 N7        30.29R WCI  -3
FERGUS FALLS   CLOUDY    10   3  72 CALM      30.28R
ELBOW LAKE     CLOUDY    10   3  71 CALM      30.25R
MORRIS MN      CLOUDY    10   3  72 NW5       30.24R WCI   2
STAPLES        CLOUDY     5  -6  61 CALM      30.23R
WHEATON        MOCLDY     7   3  85 CALM      30.29R
$$
  *****  WEATHER ELSEWHERE ACROSS MINNESOTA  *****

CITY           SKY/WX    TMP DP  RH WIND       PRES   REMARKS
DULUTH         CLEAR     -1 -11  62 N12       30.17R WCI -18
INTRNTL FALLS  PTCLDY   -14 -19  79 CALM      30.23R
ELY            CLOUDY   -17 -20  83 W3        30.17S
CLOQUET        CLEAR      0 -11  60 NW8       30.19R WCI -15
BRAINERD       MOCLDY     4  -6  63 N5        30.22R WCI  -5
HIBBING        CLOUDY   -12 -16  82 CALM      30.19S
ALEXANDRIA     CLOUDY     9  -2  61 N3        30.21S
SAINT CLOUD    CLOUDY    10  -3  55 CALM      30.24R
MINNEAPOLIS    CLOUDY    11  -2  56 N5        30.26R WCI   3
$$

  *****  WEATHER ACROSS SOUTH DAKOTA  *****

CITY           SKY/WX    TMP DP  RH WIND       PRES   REMARKS
SIOUX FALLS    CLOUDY    13   7  77 E9        30.19R WCI   1
BROOKINGS      FLURRIES  11   6  81 E10       30.18R WCI  -3
WATERTOWN      CLOUDY    10   4  76 NE8       30.18R WCI  -2
HURON          CLOUDY    17  11  77 E6        30.21S WCI   9
SISSETON         N/A     11   7  84 NW5       30.25S WCI   3
ABERDEEN       CLOUDY    14   8  77 NE8       30.23R WCI   3
MITCHELL       CLOUDY    20  14  77 E5        30.21R WCI  13
PIERRE         CLOUDY    23  20  88 E9        30.16S WCI  13
MOBRIDGE       CLOUDY    21  15  78 E5        30.15S WCI  15
RAPID CITY     CLEAR     28  26  92 E8        30.13R WCI  20
$$

  *****  SOME WEATHER IN NEARBY STATES *****

CITY           SKY/WX    TMP DP  RH WIND       PRES   REMARKS
GLASGOW MT     CLOUDY    31  26  82 E9        30.10F WCI  23
GREAT FALLS MT CLEAR     50  24  36 SW18      30.04S
CHEYENNE WY    CLOUDY    37  17  44 NW5       30.18S
SCOTTSBLUFF NE CLOUDY    38  25  59 NW10      30.13R
OMAHA NE       CLOUDY    23  17  78 NE10      30.15R WCI  12
DES MOINES IA  CLOUDY    18  10  71 NE6       30.18R WCI  10
DAVENPORT IA   CLOUDY    13   5  70 N7        30.19R WCI   3
CHICAGO IL     PTCLDY    11   1  64 NW5       30.16R WCI   3
EAU CLAIRE WI  CLOUDY     6  -5  60 NW7       30.21R WCI  -6
LA CROSSE WI   CLOUDY     6  -3  66 N3        30.24R
$$

  *****  SOME NATIONAL WEATHER *****

CITY           SKY/WX    TMP DP  RH WIND       PRES   REMARKS
LA GUARDIA NY  CLOUDY    32  15  49 W15G25    29.75R WCI  22
RALEIGH NC     PTCLDY    28   7  41 VRB7      30.05R WCI  21
ATLANTA GA     MOCLDY    32  10  40 NW8       30.17R WCI  25
NEW ORLEANS LA PTCLDY    49  30  48 SW13      30.27R
OKLAHOMA CITY  CLEAR     54  30  40 SW12      29.94S
ALBUQUERQUE NM CLOUDY    52  21  29 N7        30.31R
SALT LAKE CITY CLOUDY    29  28  96 CALM      30.46S FOG
LOS ANGELES CA CLEAR     66  42  41 W3        30.09S
BOISE ID       MOCLDY    34  31  88 W5        30.42F
SEATTLE WA     MOCLDY    52  47  83 SW13      30.28S
$$

*** WEATHER ACROSS MANITOBA...SASKATCHEWAN AND ONTARIO ***
                ***ONTARIO***

CITY           SKY/WX    TMP DP  RH WIND       PRES   REMARKS
GERALDTON      CLEAR    -18 -24  76 VRB2      30.07R
THUNDER BAY    CLEAR     -2 -11  65 W7        30.20R WCI -16
SIOUX LOOKOUT  CLEAR    -17 -22  76 CALM      30.16S
TORONTO        PTCLDY    14   3  62 NW15      29.81R WCI  -1
BIG TROUT LK   FLURRIES -15 -20  76 NW10      30.09F WCI -35
PICKLE LAKE    NOT AVBL
DRYDEN         PTCLDY    -9 -13  84 W9        30.17S WCI -27
KENORA         CLEAR     -2  -9  71 NW8       30.21S WCI -17
$$
                *** MANITOBA***

CITY           SKY/WX    TMP DP  RH WIND       PRES   REMARKS
BRANDON        FLURRIES   1  -2  85 E3        30.24F
DAUPHIN        CLOUDY     7   3  85 W6        30.24F WCI  -3
ISLAND LAKE    CLEAR    -13 -17  84 W7        30.20F WCI -29
PILOT MOUND    NOT AVBL
THE PAS        FLURRIES   1  -2  85 N9        30.31S WCI -14
THOMPSON       CLEAR    -15 -18  84 NW5       30.22F WCI -27
WINNIPEG       CLOUDY    -4  -9  77 CALM      30.30F
LYNN LAKE      CLEAR    -15 -20  76 NW8       30.25F WCI -32
CHURCHILL      CRYSTALS -24 -31  69 NW16G22   30.14F WCI -51
GILLAM         CLEAR    -17 -22  76 W13       30.16F WCI -39
$$
                ***SASKATCHEWAN***

CITY           SKY/WX    TMP DP  RH WIND       PRES   REMARKS
ESTEVAN        FLURRIES  16  10  79 E8        30.16F WCI   5
KINDERSLEY     CLOUDY    23  21  93 E17       30.11F WCI   9
LLOYDMINSTER   LGT SNOW  16  14  93 E12       30.15F WCI   3
PRINCE ALBERT  CLOUDY     9   3  78 NE8       30.26F WCI  -4
REGINA         CLOUDY    18  12  79 E5        30.15F WCI  11
YORKTON        FLURRIES  12   9  85 SW3       30.19F  C1F1C2F2C3F3C4F4C5F5C6F6C7F7C8F8C9F9CaFaCbFbCcFcCdFdCe!



USA.gov is the U.S. government's official web portal to all federal, state and local government web resources and services.